Location: Caltech
(34.1382°N, 118.1253°W)
Time: 20:58:56
(UTC-07:00)

Iridium 59 - Visible Passes

Search period start: 27 March 2015 00:00
Search period end: 06 April 2015 00:00
Orbit: 776 x 779 km, 86.4° (Epoch: 26 March)

Date Brightness Start Highest point End Pass type
(mag) Time Alt. Az. Time Alt. Az. Time Alt. Az.
27 Mar 7.9 05:23:59 10° SE 05:27:33 20° E 05:31:19 10° NE visible
29 Mar 5.8 05:55:53 10° SSE 06:00:57 56° E 06:06:03 10° N visible
30 Mar 7.1 05:23:10 10° SE 05:27:33 29° E 05:32:02 10° NNE visible
31 Mar 8.0 04:51:28 10° ESE 04:54:13 15° E 04:57:14 10° NE visible
01 Apr 5.1 05:55:48 10° S 06:01:01 85° E 06:06:15 10° N visible
02 Apr 6.3 05:22:41 10° SSE 05:27:33 43° E 05:32:29 10° NNE visible
03 Apr 7.5 04:50:17 10° SE 04:54:11 22° E 04:58:14 10° NNE visible
04 Apr 8.2 04:19:30 10° E 04:20:53 11° E 04:22:38 10° ENE visible
04 Apr 5.0 05:55:57 10° S 06:01:07 64° W 06:06:18 10° N visible
05 Apr 5.5 05:22:28 10° S 05:27:36 65° E 05:32:47 10° N visible
